EHI
0 0 1 2 1 0 0 0 0 0 0 0 0 0 0 0 0 0 0 0 0 0 0 0 0 0 0 0 0 0 0 0 0 0 0 0 0 0 0 0 0 0 0
0 0 1 2 2 1 0 0 0 0 0 0 0 0 0 0 0 0 0 0 0 0 0 0 0 0 0 0 0 0 0 0 0 0 0 0 0 0 0 0 0 0 0
0 0 1 2 2 1 0 0 0 0 0 0 0 0 0 0 0 0 0 0 0 0 0 0 0 0 0 0 0 0 0 0 0 0 0 0 0 0 0 0 0 0 0
0 0 0 1 2 2 1 0 0 0 0 0 0 0 0 0 0 0 0 0 0 0 0 0 0 0 0 0 0 0 0 0 0 0 0 0 0 0 0 0 0 0 0
0 0 0 0 1 1 1 0 0 0 0 0 0 0 0 0 0 0 0 0 0 0 0 0 0 0 0 0 0 0 0 0 0 0 0 0 0 0 0 0 0 0 0
0 0 0 0 0 0 0 0 0 0 0 0 0 0 0 0 0 0 0 0 0 0 0 0 0 0 0 0 0 0 0 0 0 0 0 0 0 0 0 0 0 0 0
0 0 0 0 0 0 0 0 0 0 0 0 0 0 0 0 0 0 0 0 0 0 0 0 0 0 0 0 0 0 0 0 0 0 0 0 0 0 0 0 0 0 0
0 0 0 0 0 0 0 0 0 0 0 0 0 0 0 0 0 0 0 0 0 0 0 0 0 0 0 0 0 0 0 0 0 0 0 0 0 0 0 0 0 0 0
0 0 0 0 0 0 0 0 0 0 0 0 0 0 0 0 0 0 0 0 0 0 0 0 0 0 0 0 0 0 0 0 0 0 0 0 0 0 0 0 0 0 0
0 0 0 0 0 0 0 0 0 0 0 0 0 0 0 0 0 0 0 0 0 0 0 0 0 0 0 0 0 0 0 0 0 0 0 0 0 0 0 0 0 0 0
0 0 0 0 0 0 0 0 0 0 0 0 0 0 0 0 0 0 0 0 0 0 0 0 0 0 0 0 0 0 0 0 0 0 0 0 0 0 0 0 0 0 0
0 0 0 0 0 0 0 0 0 0 0 0 0 0 0 0 0 0 0 0 0 0 0 0 0 0 0 0 0 0 0 0 0 0 0 0 0 0 0 0 0 0 0
0 0 0 0 0 0 0 0 0 0 0 0 0 0 0 0 0 0 0 0 0 0 0 0 0 0 0 0 0 0 0 0 0 0 0 0 0 0 0 0 0 0 0
0 0 0 0 0 0 0 0 0 0 0 0 0 0 0 0 0 0 0 0 0 0 0 0 0 0 0 0 0 0 0 0 0 0 0 0 0 0 0 0 0 0 0
0 0 0 0 0 0 0 0 0 0 0 0 0 0 0 0 0 0 0 0 0 0 0 0 0 0 0 0 0 0 0 0 0 0 0 0 0 0 0 0 0 0 0
0 0 0 0 0 0 0 0 0 0 0 0 0 0 0 0 0 0 0 0 0 0 0 0 0 0 0 0 0 0 0 0 0 0 0 0 0 0 0 0 0 0 0
0 0 0 0 0 0 0 0 0 0 0 0 0 0 0 0 0 0 0 0 0 0 0 0 0 0 0 0 0 0 0 0 0 0 0 0 0 0 0 0 0 0 0
0 0 0 0 0 0 0 0 0 0 0 0 0 0 0 0 0 0 0 0 0 0 0 0 0 0 0 0 0 0 0 0 0 0 0 0 0 0 0 0 0 0 0
0 0 0 0 0 0 0 0 0 0 0 0 0 0 0 0 0 0 0 0 0 0 0 0 0 0 0 0 0 0 0 0 0 0 0 0 0 0 0 0 0 0 0
0 0 0 0 0 0 0 0 0 0 0 0 0 0 0 0 0 0 0 0 0 0 0 0 0 0 0 0 0 0 0 0 0 0 0 0 0 0 0 0 0 0 0
0 0 0 0 0 0 0 0 0 0 0 0 0 0 0 0 0 0 0 0 0 0 0 0 0 0 0 0 0 0 0 0 0 0 0 0 0 0 0 0 0 0 0
0 0 0 0 0 0 0 0 0 0 0 0 0 0 0 0 0 0 0 0 0 0 0 0 0 0 0 0 0 0 0 0 0 0 0 0 0 0 0 0 0 0 0
0 0 0 0 0 0 0 0 0 0 0 0 0 0 0 0 0 0 0 0 0 0 0 0 0 0 0 0 0 0 0 0 0 0 0 0 0 0 0 0 0 0 0
0 0 0 0 0 0 0 0 0 0 0 0 0 0 0 0 0 0 0 0 0 0 0 0 0 0 0 0 0 0 0 0 0 0 0 0 0 0 0 0 0 0 0
0 0 0 0 0 0 0 0 0 0 0 0 0 0 0 0 0 0 0 0 0 0 0 0 0 0 0 0 0 0 0 0 0 0 0 0 0 0 0 0 0 0 0
0 0 0 0 0 0 0 0 0 0 0 0 0 0 0 0 0 0 0 0 0 0 0 0 0 0 0 0 0 0 0 0 0 0 0 0 0 0 0 0 0 0 0
Wind_Speed
6 6 6 6 5 5 4 5 4 4 4 5 6 7 7 7 7 6 6 6 5 4 3 3 4 4 4 4 4 4 4 5 6 4 3 3 4 5 4 4 5 5 5
6 6 7 6 5 5 6 5 4 4 4 4 5 6 6 6 7 6 6 5 3 2 1 0 1 2 3 3 4 5 5 5 8 9 4 3 4 3 4 5 5 5 5
7 6 7 7 7 7 7 5 4 4 3 3 4 5 6 6 6 5 5 4 4 3 2 3 2 3 4 4 5 6 6 7 7 9 5 3 3 3 4 5 5 4 5
8 7 8 9 9 9 7 6 5 4 3 3 3 4 4 4 4 4 4 4 5 5 4 4 4 4 6 6 7 8 9 10 9 9 7 4 3 3 4 4 4 4 4
9 8 9 9 8 8 7 7 5 4 4 3 2 3 3 3 3 3 3 3 4 5 5 5 6 8 8 7 7 9 10 9 8 8 6 5 3 4 4 2 3 3 4
10 10 9 8 7 8 8 7 6 5 4 3 2 1 2 2 3 4 2 3 4 4 5 5 6 8 12 15 15 12 11 10 9 6 5 6 4 3 3 3 2 2 3
10 10 9 8 8 8 8 8 8 7 5 4 3 2 1 0 1 3 4 4 4 4 5 4 5 7 8 11 14 15 13 12 9 7 8 5 4 3 3 3 3 3 2
10 10 9 9 8 8 7 9 9 7 6 5 5 4 3 2 2 2 5 5 6 6 5 5 6 6 6 9 11 11 9 8 6 5 6 5 4 3 3 3 3 3 2
10 10 10 9 9 8 8 10 9 8 8 7 5 6 5 3 4 5 6 5 5 6 5 5 6 7 8 11 11 11 9 7 9 10 9 8 7 6 4 4 3 3 3
11 10 10 9 10 10 10 9 8 8 9 9 7 7 7 5 6 8 8 5 5 4 4 5 7 8 9 10 9 10 9 6 7 8 8 8 8 8 7 4 3 3 2
11 10 10 9 9 10 9 8 8 9 9 9 9 7 7 7 8 10 10 5 6 5 4 4 4 9 10 9 8 7 9 7 7 8 6 6 5 5 5 4 3 3 3
11 11 11 10 9 9 8 8 8 10 11 11 9 8 6 6 8 10 12 9 8 6 5 4 5 9 10 10 8 10 11 8 6 6 6 5 4 4 4 4 5 4 3
11 11 11 11 9 8 8 8 7 9 10 10 10 9 7 6 6 10 12 11 11 5 5 8 9 11 10 8 10 11 8 6 6 6 5 3 2 2 2 2 4 4 4
12 12 10 10 10 8 7 6 6 8 9 10 10 10 9 8 7 7 7 7 9 7 7 9 11 10 7 8 7 6 4 4 5 5 4 3 2 3 3 3 3 3 3
11 11 10 9 9 9 8 7 7 8 10 11 11 11 12 11 12 14 11 9 8 8 9 6 5 4 5 4 4 4 4 4 4 3 4 4 3 3 3 2 2 2 3
10 10 8 8 8 8 8 8 9 10 13 16 15 13 12 14 18 18 16 15 15 16 10 7 6 6 6 6 6 5 4 4 4 4 4 4 4 4 3 2 2 2 3
11 10 8 8 8 8 7 7 7 6 9 13 15 16 15 17 20 19 17 16 17 16 8 7 7 7 6 6 6 5 5 4 4 5 4 4 4 3 3 3 2 2 2
11 12 11 8 8 8 7 7 6 6 5 6 9 14 16 19 20 20 19 15 9 8 6 8 8 7 7 7 6 5 5 5 4 5 4 4 4 3 3 3 2 2 2
10 8 8 8 8 8 7 7 6 7 6 7 6 8 12 15 15 18 18 10 11 10 8 8 8 8 7 7 7 6 6 6 6 5 5 5 4 4 3 3 3 3 2
8 14 12 8 7 7 6 6 6 6 6 7 9 10 10 10 8 11 10 9 10 10 9 9 8 8 8 7 7 7 7 6 7 6 5 5 5 4 5 5 4 3 2
7 9 13 9 7 6 6 6 6 5 6 7 8 11 16 13 12 13 12 10 10 10 10 9 8 8 8 7 7 8 9 7 7 7 6 6 6 5 4 5 5 4 3
6 6 6 7 6 6 6 5 5 5 6 8 8 10 16 11 11 11 11 11 10 9 9 9 9 8 8 9 8 8 8 8 8 7 7 6 6 6 5 5 5 5 4
6 7 6 6 6 6 6 5 4 5 6 8 9 10 11 10 11 11 11 11 10 9 9 9 9 8 8 8 8 9 9 9 9 9 9 8 7 7 6 7 7 6 6
6 6 6 5 5 5 5 4 4 4 6 8 9 10 11 10 11 11 11 10 10 9 9 9 9 12 13 10 8 8 9 9 9 9 12 10 9 8 7 7 8 9 7
6 6 5 5 5 4 4 4 3 4 6 8 9 10 10 10 10 10 9 9 11 10 11 11 9 10 14 15 12 11 10 11 10 9 9 9 10 10 9 9 8 8 8
5 5 5 4 4 3 3 3 3 4 6 7 9 9 10 10 10 9 9 9 9 9 10 10 11 13 13 13 15 14 11 11 11 10 9 9 10 10 10 9 11 9 9
Wind_Direction
259 245 238 237 231 232 239 248 255 270 289 302 308 312 315 319 320 315 308 302 289 280 265 234 225 204 191 195 187 179 168 142 128 115 85 75 76 85 79 77 81 81 78
278 257 244 240 233 233 241 245 247 263 284 298 309 315 321 326 330 333 331 329 322 315 308 166 174 152 150 162 162 155 146 136 133 128 106 76 71 79 84 79 71 77 77
303 277 256 242 234 234 237 239 239 251 279 301 313 321 326 331 340 348 354 3 16 19 31 62 71 102 106 107 117 121 122 118 115 120 112 81 70 61 72 69 65 54 63
313 292 268 250 237 233 232 230 229 234 255 285 304 318 328 336 349 5 20 27 38 36 38 49 56 84 104 107 107 110 112 111 109 111 106 94 79 62 78 76 67 48 44
315 300 280 264 246 234 228 225 222 224 235 254 288 320 332 338 359 13 36 57 59 54 46 49 59 73 88 101 111 114 115 112 110 110 108 102 88 79 76 70 82 69 54
315 306 296 277 253 238 229 220 216 217 222 226 241 301 343 3 20 32 70 78 78 76 64 55 66 70 81 85 91 96 109 118 119 115 114 111 103 92 88 84 90 79 61
315 312 309 294 268 249 234 219 216 210 205 208 202 193 199 323 49 63 89 103 92 84 81 74 80 76 82 92 87 83 81 88 103 119 120 122 121 130 120 99 89 86 78
314 314 315 306 286 265 241 227 219 204 200 202 196 185 180 204 165 106 97 97 89 76 73 87 98 90 93 102 98 89 82 76 86 99 114 116 117 127 116 107 104 97 78
307 309 309 306 296 279 253 238 221 204 200 197 191 183 180 194 180 150 125 107 95 80 72 79 97 99 107 110 106 101 92 82 81 87 88 91 97 101 109 104 92 88 70
298 299 301 300 295 286 267 248 224 207 204 195 190 188 182 184 182 162 144 127 113 103 82 76 86 105 111 113 116 118 112 106 104 93 76 68 73 72 68 78 103 100 93
289 292 294 293 291 287 279 258 228 210 200 194 189 189 186 184 182 171 159 146 144 135 121 106 97 108 109 109 112 117 127 123 109 103 93 83 74 67 62 61 66 93 97
288 288 287 288 289 294 284 271 238 211 199 193 187 185 187 185 182 180 173 164 154 144 142 133 124 121 116 115 111 120 121 115 110 104 97 87 80 70 59 60 64 69 74
287 283 282 284 283 281 278 274 254 216 200 193 188 187 184 182 185 184 178 171 161 144 143 143 136 128 116 110 117 124 122 118 116 111 107 95 78 66 67 68 57 61 69
286 283 280 279 281 278 271 264 253 225 201 194 188 187 181 177 179 175 170 163 153 134 130 130 123 115 104 106 110 110 111 121 124 122 116 102 94 88 71 61 59 45 52
285 284 281 275 274 277 272 258 251 233 210 195 192 186 180 184 188 176 166 165 161 151 136 124 124 125 123 120 113 114 118 121 115 119 122 118 109 98 80 67 70 67 62
283 284 279 275 272 271 277 277 256 239 221 208 195 185 188 183 168 170 169 162 152 148 140 147 152 154 156 153 147 140 138 138 135 133 132 130 125 118 107 92 84 80 73
274 279 277 273 271 268 271 271 279 256 220 205 193 183 178 168 164 168 164 154 152 151 149 160 165 168 167 164 163 160 158 154 149 148 145 144 140 134 127 118 109 98 81
273 277 278 271 269 263 264 264 260 247 216 192 190 185 172 165 165 161 147 134 149 169 169 169 173 173 172 172 172 169 161 155 158 161 158 158 157 150 148 148 143 131 110
275 273 272 272 268 261 260 262 257 244 219 188 164 169 169 156 151 152 151 159 168 177 178 176 176 175 177 177 176 174 171 171 171 170 172 172 171 165 165 168 162 149 141
271 275 279 275 268 262 262 258 249 233 209 186 177 165 153 145 149 162 175 175 174 178 180 180 179 179 179 177 177 176 175 176 178 182 183 182 183 183 180 180 179 174 175
267 272 279 279 268 265 263 253 241 222 201 187 178 168 166 169 167 170 178 182 181 181 181 181 180 181 181 177 177 181 183 185 187 189 189 189 188 190 191 188 187 188 183
262 262 263 266 266 266 262 247 231 216 200 187 168 161 168 169 168 171 178 184 186 185 181 179 181 183 183 183 181 182 188 192 194 193 195 194 192 194 192 192 191 189 191
260 261 261 262 262 262 259 245 223 216 198 180 164 160 172 177 172 175 179 182 182 182 180 179 182 184 186 186 186 187 191 197 197 194 194 195 196 196 196 198 196 192 197
260 259 261 263 260 260 258 246 230 211 193 174 165 165 173 178 176 178 179 178 179 181 181 183 188 191 189 187 191 196 203 202 196 196 197 197 198 200 200 202 202 201 198
254 252 253 252 255 254 251 246 233 207 187 170 166 166 171 176 177 177 176 176 178 181 185 186 190 194 196 196 195 200 202 198 196 195 194 199 203 203 202 203 201 198 195
246 247 247 242 239 240 241 239 227 203 180 168 166 165 169 174 178 176 174 175 179 183 186 190 196 197 198 202 206 204 197 195 196 194 195 199 204 207 202 203 200 197 193